This is the latest recevied weather packets stored in our database for station/object G8PZT. If no packets are shown the sender has not sent any weather packets the latest 10 day(s).
| Time | Temp. | Humidity | Pressure | Rain* | Wind** | Luminosity | Snow |
|---|---|---|---|---|---|---|---|
| 1777597916 | 5.56° C | 54% | - | 0 mm | - | - | - |
| 1777597315 | 5.56° C | 53% | - | 0 mm | - | - | - |
| 1777597202 | 5.56° C | 53% | - | 0 mm | - | - | - |
| 1777596715 | 5.56° C | 51% | - | 0 mm | - | - | - |
| 1777596115 | 5.56° C | 49% | - | 0 mm | - | - | - |
| 1777596002 | 5.56° C | 49% | - | 0 mm | - | - | - |
| 1777595515 | 6.67° C | 46% | - | 0 mm | - | - | - |
| 1777594915 | 6.67° C | 46% | - | 0 mm | - | - | - |
| 1777594802 | 6.67° C | 46% | - | 0 mm | - | - | - |
| 1777594315 | 6.67° C | 45% | - | 0 mm | - | - | - |
| 1777593715 | 7.22° C | 42% | - | 0 mm | - | - | - |
| 1777593602 | 7.22° C | 42% | - | 0 mm | - | - | - |
| 1777593115 | 7.22° C | 41% | - | 0 mm | - | - | - |
| 1777592515 | 7.78° C | 40% | - | 0 mm | - | - | - |
| 1777592402 | 7.78° C | 39% | - | 0 mm | - | - | - |
| 1777591915 | 7.78° C | 37% | - | 0 mm | - | - | - |
| 1777591314 | 8.89° C | 36% | - | 0 mm | - | - | - |
| 1777591202 | 9.44° C | 31% | - | 0 mm | - | - | - |
| 1777590714 | 9.44° C | 31% | - | 0 mm | - | - | - |
| 1777590114 | 10° C | 27% | - | 0 mm | - | - | - |
| 1777590002 | 10.56° C | 26% | - | 0 mm | - | - | - |
| 1777589514 | 11.67° C | 24% | - | 0 mm | - | - | - |
| 1777588914 | 13.33° C | 23% | - | 0 mm | - | - | - |
| 1777588802 | 13.33° C | 23% | - | 0 mm | - | - | - |
| 1777588315 | 13.33° C | 23% | - | 0 mm | - | - | - |
* Rain latest hour (hover to see other rain measurements)
** Current wind speed in m/s (hover to see current wind gust speed)